Estación Meteorológica de la Universidad de Murcia
Estación Meteorológica de la Universidad de Murcia
Universidad de Murcia
 

Temperatura y Humedad del sueloTemperatura y Humedad del suelo

 

Temperatura del suelo máxima: 18,6 ºC a las 15:54:00 del día 21/01/2023
Temperatura del suelo mínima: 3,8 ºC a las 07:24:00 del día 21/01/2023
Humedad del suelo máxima: 53,9 % a las 17:11:00 del día 21/01/2023
Humedad del suelo mínima: 52,1 % a las 08:09:00 del día 21/01/2023

||Temperatura del suelo máxima últimos meses|| ---- ||Temperatura del suelo mínima últimos meses||

----||Humedad del suelo máxima últimos meses|| ---- ||Humedad del suelo mínima últimos meses||


Temperatura del suelo máxima

  • 1 - 18,6 ºC del día 21/01/2023
  • 2 - 19,5 ºC del día 20/01/2023
  • 3 - 16,7 ºC del día 19/01/2023
  • 4 - 13,9 ºC del día 18/01/2023
  • 5 - 23,4 ºC del día 17/01/2023
  • 6 - 19,9 ºC del día 16/01/2023
  • 7 - 21,8 ºC del día 15/01/2023
  • 8 - 21,5 ºC del día 14/01/2023
  • 9 - 20,6 ºC del día 13/01/2023
  • 10 - 20,8 ºC del día 12/01/2023
  • 11 - 20,7 ºC del día 11/01/2023
  • 12 - 22,6 ºC del día 10/01/2023
  • 13 - 23,5 ºC del día 09/01/2023
  • 14 - 20,2 ºC del día 08/01/2023
  • 15 - 19,8 ºC del día 07/01/2023
  • 16 - 19,3 ºC del día 06/01/2023
  • 17 - 18,6 ºC del día 05/01/2023
  • 18 - 18,3 ºC del día 04/01/2023
  • 19 - 21,2 ºC del día 03/01/2023
  • 20 - 20,8 ºC del día 02/01/2023
  • 21 - 19 ºC del día 01/01/2023
  • 22 - 22,9 ºC del día 31/12/2022
  • 23 - 22,2 ºC del día 30/12/2022
  • 24 - 21,9 ºC del día 29/12/2022
  • 25 - 20,1 ºC del día 28/12/2022
  • 26 - 23,4 ºC del día 27/12/2022
  • 27 - 22,6 ºC del día 26/12/2022
  • 28 - 23,2 ºC del día 25/12/2022
  • 29 - 25,2 ºC del día 24/12/2022
  • 30 - 22,9 ºC del día 23/12/2022
  • 31 - 23 ºC del día 22/12/2022
  • 32 - 21,1 ºC del día 21/12/2022
  • 33 - 19 ºC del día 20/12/2022
  • 34 - 19,2 ºC del día 19/12/2022
  • 35 - 19,9 ºC del día 18/12/2022
  • 36 - 21,3 ºC del día 17/12/2022
  • 37 - 18,4 ºC del día 16/12/2022
  • 38 - 20,3 ºC del día 15/12/2022
  • 39 - 21,4 ºC del día 14/12/2022
  • 40 - 23,3 ºC del día 13/12/2022
  • 41 - 22,6 ºC del día 12/12/2022
  • 42 - 15,5 ºC del día 11/12/2022
  • 43 - 21,9 ºC del día 10/12/2022
  • 44 - 19,7 ºC del día 09/12/2022
  • 45 - 20,1 ºC del día 08/12/2022
  • 46 - 22 ºC del día 07/12/2022
  • 47 - 19,4 ºC del día 06/12/2022

||Volver al inicio de la página||


Temperatura del suelo mínima

  • 1 - 3,8 ºC del día 21/01/2023
  • 2 - 4,9 ºC del día 20/01/2023
  • 3 - -30 ºC del día 19/01/2023
  • 4 - 5,3 ºC del día 18/01/2023
  • 5 - 11,2 ºC del día 17/01/2023
  • 6 - 6,1 ºC del día 16/01/2023
  • 7 - 4,8 ºC del día 15/01/2023
  • 8 - 3,2 ºC del día 14/01/2023
  • 9 - 6,8 ºC del día 13/01/2023
  • 10 - 7,6 ºC del día 12/01/2023
  • 11 - 6,8 ºC del día 11/01/2023
  • 12 - 7 ºC del día 10/01/2023
  • 13 - 11,5 ºC del día 09/01/2023
  • 14 - 5,9 ºC del día 08/01/2023
  • 15 - 4 ºC del día 07/01/2023
  • 16 - 3,8 ºC del día 06/01/2023
  • 17 - 6,2 ºC del día 05/01/2023
  • 18 - 7,5 ºC del día 04/01/2023
  • 19 - 6,9 ºC del día 03/01/2023
  • 20 - 5,6 ºC del día 02/01/2023
  • 21 - 5,9 ºC del día 01/01/2023
  • 22 - 5,7 ºC del día 31/12/2022
  • 23 - 6,7 ºC del día 30/12/2022
  • 24 - 4,1 ºC del día 29/12/2022
  • 25 - 5,5 ºC del día 28/12/2022
  • 26 - 5,4 ºC del día 27/12/2022
  • 27 - 7,3 ºC del día 26/12/2022
  • 28 - 7,1 ºC del día 25/12/2022
  • 29 - 7,6 ºC del día 24/12/2022
  • 30 - 10 ºC del día 23/12/2022
  • 31 - 8,8 ºC del día 22/12/2022
  • 32 - 8,6 ºC del día 21/12/2022
  • 33 - 9,6 ºC del día 20/12/2022
  • 34 - 8,6 ºC del día 19/12/2022
  • 35 - 7,3 ºC del día 18/12/2022
  • 36 - 7,7 ºC del día 17/12/2022
  • 37 - 7,3 ºC del día 16/12/2022
  • 38 - 10,3 ºC del día 15/12/2022
  • 39 - 13,9 ºC del día 14/12/2022
  • 40 - 15,7 ºC del día 13/12/2022
  • 41 - 10 ºC del día 12/12/2022
  • 42 - 10,8 ºC del día 11/12/2022
  • 43 - 9,9 ºC del día 10/12/2022
  • 44 - 12,3 ºC del día 09/12/2022
  • 45 - 12 ºC del día 08/12/2022
  • 46 - 11,9 ºC del día 07/12/2022
  • 47 - 12,3 ºC del día 06/12/2022

||Volver al inicio de la página||


Humedad del suelo máxima

  • 1 - 53,9 % del día 21/01/2023
  • 2 - 54,2 % del día 20/01/2023
  • 3 - 72,9 % del día 19/01/2023
  • 4 - 0 % del día 18/01/2023
  • 5 - 0 % del día 17/01/2023
  • 6 - 0 % del día 16/01/2023
  • 7 - 0 % del día 15/01/2023
  • 8 - 0 % del día 14/01/2023
  • 9 - 54,5 % del día 13/01/2023
  • 10 - 54,7 % del día 12/01/2023
  • 11 - 54,8 % del día 11/01/2023
  • 12 - 54,8 % del día 10/01/2023
  • 13 - 54,9 % del día 09/01/2023
  • 14 - 53,9 % del día 08/01/2023
  • 15 - 54,6 % del día 07/01/2023
  • 16 - 54,8 % del día 06/01/2023
  • 17 - 55,2 % del día 05/01/2023
  • 18 - 55,3 % del día 04/01/2023
  • 19 - 55,3 % del día 03/01/2023
  • 20 - 54,5 % del día 02/01/2023
  • 21 - 55,4 % del día 01/01/2023
  • 22 - 55,7 % del día 31/12/2022
  • 23 - 55,7 % del día 30/12/2022
  • 24 - 56 % del día 29/12/2022
  • 25 - 56 % del día 28/12/2022
  • 26 - 56,3 % del día 27/12/2022
  • 27 - 56,4 % del día 26/12/2022
  • 28 - 56,7 % del día 25/12/2022
  • 29 - 56,6 % del día 24/12/2022
  • 30 - 57,3 % del día 23/12/2022
  • 31 - 57 % del día 22/12/2022
  • 32 - 57,5 % del día 21/12/2022
  • 33 - 57,3 % del día 20/12/2022
  • 34 - 57,3 % del día 19/12/2022
  • 35 - 57,3 % del día 18/12/2022
  • 36 - 57,3 % del día 17/12/2022
  • 37 - 57,5 % del día 16/12/2022
  • 38 - 57,6 % del día 15/12/2022
  • 39 - 57,5 % del día 14/12/2022
  • 40 - 57,6 % del día 13/12/2022
  • 41 - 57,3 % del día 12/12/2022
  • 42 - 57,8 % del día 11/12/2022
  • 43 - 57,6 % del día 10/12/2022
  • 44 - 57,6 % del día 09/12/2022
  • 45 - 57,8 % del día 08/12/2022
  • 46 - 57,6 % del día 07/12/2022
  • 47 - 57,6 % del día 06/12/2022

||Volver al inicio de la página||


Humedad del suelo mínima

  • 1 - 52,1 % del día 21/01/2023
  • 2 - 51,9 % del día 20/01/2023
  • 3 - 0 % del día 19/01/2023
  • 4 - 999,9 % del día 18/01/2023
  • 5 - 999,9 % del día 17/01/2023
  • 6 - 999,9 % del día 16/01/2023
  • 7 - 999,9 % del día 15/01/2023
  • 8 - 999,9 % del día 14/01/2023
  • 9 - 52,8 % del día 13/01/2023
  • 10 - 53 % del día 12/01/2023
  • 11 - 53 % del día 11/01/2023
  • 12 - 53,3 % del día 10/01/2023
  • 13 - 53,3 % del día 09/01/2023
  • 14 - 53,7 % del día 08/01/2023
  • 15 - 53,2 % del día 07/01/2023
  • 16 - 53,2 % del día 06/01/2023
  • 17 - 53,4 % del día 05/01/2023
  • 18 - 53,6 % del día 04/01/2023
  • 19 - 54 % del día 03/01/2023
  • 20 - 54,1 % del día 02/01/2023
  • 21 - 54,2 % del día 01/01/2023
  • 22 - 54,2 % del día 31/12/2022
  • 23 - 54,1 % del día 30/12/2022
  • 24 - 54 % del día 29/12/2022
  • 25 - 54,3 % del día 28/12/2022
  • 26 - 54,5 % del día 27/12/2022
  • 27 - 54,8 % del día 26/12/2022
  • 28 - 55 % del día 25/12/2022
  • 29 - 55,1 % del día 24/12/2022
  • 30 - 55,3 % del día 23/12/2022
  • 31 - 55,4 % del día 22/12/2022
  • 32 - 55,5 % del día 21/12/2022
  • 33 - 55,7 % del día 20/12/2022
  • 34 - 55,6 % del día 19/12/2022
  • 35 - 55,7 % del día 18/12/2022
  • 36 - 55,7 % del día 17/12/2022
  • 37 - 55,8 % del día 16/12/2022
  • 38 - 56 % del día 15/12/2022
  • 39 - 56 % del día 14/12/2022
  • 40 - 55,9 % del día 13/12/2022
  • 41 - 55,8 % del día 12/12/2022
  • 42 - 55,8 % del día 11/12/2022
  • 43 - 55,9 % del día 10/12/2022
  • 44 - 56 % del día 09/12/2022
  • 45 - 56,2 % del día 08/12/2022
  • 46 - 56 % del día 07/12/2022
  • 47 - 55,9 % del día 06/12/2022

 

|| Temperatura Ambiente|| Humedad relativa|| Velocidad y dirección del viento|| Precipitación|| Radiación Solar Global y PAR|| Presión atmosférica|| Más información|| Volver a la página principal|| Volver al inicio de la página||


Estación Meteorológica de la Universidad de Murcia
http://estacion.um.es/
Informacion actualizada a: 23/01/2023 a las 14:08:00